NOAA 16 DEB, 41429

Orbit data source: Space-Track

NOAA 16 DEB, 41429 is space debris in SSO originally from a launch on Thu, 21 Sep 2000 UTC launched from the Air Force Western Test Range (AFWTR). Debris objects in space refer to the collection of defunct objects orbiting the Earth. Examples of debris include non-operational satellites, rocket bodies, and fragments generated from explosions, collisions, or faulty payload assembly.

Loading next visibility...
Identifier
41429, 2000-055LJ
Orbit
SSO
Country
Flag of USUS
Related business
Manufacturer
Unknown
Mission
Spacecraft
Bus & Motor
Unknown
Mass
Unknown
Launch date (UTC)
2000-09-21 (25 years ago)
Launch vehicle
Unknown
Launch site
Air Force Western Test Range (AFWTR)
Object type
Payload
Rocket body
Debris
Shape & HBR
Unknown shape, 0.1 m
Radar Cross Section
Small (<0.1 m²)

Expand to show TLE details & history
Last TLE update: 1 day ago

TLE from 1 day ago
0 NOAA 16 DEB
1 41429U 00055LJ  25352.66377348  .00003219  00000-0  12964-2 0  9990
2 41429  98.7175  74.1773 0018038 152.7300 207.4832 14.28645139507300
Epoch: 2025-12-18T15:55Z
TLE epoch observation values (Epoch: 2025-12-18T15:55:50.028Z)
Latitude
-0.00004°
Longitude
107.70281°
Altitude
810.677 km
Speed
7.442 km/s
True Right ascension
04h 56m 42s
True Declination
0° 00' 00"
Sunlit
Object was in full shadow at epoch
Visualization orbit readout
Latitude
Unknown
Longitude
Unknown
Altitude
Unknown
Speed
Unknown
Apparent Right ascension
Unknown
Apparent Declination
Unknown
Sunlit
N/A
Visualization observer readout
Local Sidereal Time
17:25:47
Azimuth
Unknown
Elevation
Unknown
Doppler factor
Unknown
Orbital elements
Apogee altitude
806.347 km
Perigee altitude
780.475 km
Semi-major axis
7,171.548 km
Eccentricity
0.0018
Inclination
98.7175°
RAAN
74.1773°
Arg. of periapsis
152.73°
True anomaly
207.388°
Mean anomaly
207.4832°
Eccentric anomaly
207.43558°
Mean motion
3.57375 °/min
Orbital period
100.73 mins
BSTAR
0.0012964
Loading maneuver chart data...
Computing Atmospheric mass density...
Loading historical data...
Loading historical data...
Loading historical data...
Loading historical data...
Loading historical data...
Loading historical data...
Loading historical data...

Documentation

Showing up to 5 results
|